COSMOS 2069

导读

COSMOS 2069(宇宙2069)是苏联(CIS)于1990年4月6日发射的“宇宙”系列无人卫星。该系列卫星自1962年起持续发射,承担多类任务,涵盖科学研究、航天技术试验、军事侦察等领域,多数任务涉及空间环境探测与技术验证。 作为苏联解体前发射的卫星,它延续了宇宙系列“兜底命名”传统,原本项目失败的探测任务常归入该序列。它服役期间为空间科学积累了数据,是苏联航天活动的重要组成。

Basic Information
目录编号:
20554
目录名称:
COSMOS 2069
国际标识:
1990-029F
轨道中心:
EARTH
卫星名称:
COSMOS 2069
卫星全名:
--
卫星状态:
在轨 (已飞行13221 天)
发射日期:
1990-04-06 UTC
国别 :
俄罗斯(独联体) (CIS)
星等 :
--
Orbit Information
数据来源 国际轨道数据 AOE轨道数据
星历时间 2026-06-17T09:17:08+0800
7小时前
查看轨道信息
2026-06-15T06:00:00+0800
2天前
查看轨道信息
半长轴 7823.691km 7823.689km
偏心率 0.0022543 0.0022522
轨道倾角 73.981° 73.981°
近地点辐角 278.211° 281.647°
升交点赤经 123.460° 126.332°
平近点角 157.191° 226.011°
近地点 1427.917km 1427.931km
远地点 1463.191km 1463.173km
周期 114.783分钟 114.783分钟
每日圈数 12.545421 12.545426
Detailed Information
使用方式:
暂无
2D Orbit Map
3D Orbit Map
Orbit Altitude Analysis Chart
Orbit Inclination Analysis Chart
Orbit Comprehensive Analysis Chart
View Comprehensive Chart